Waarnemingen

Advertentie
Mijn weer
Malmo/Sturup, Zweden (2636): temperatuur & dauwpunt: 13.06.2018 22:00:00 - 19.06.2018 22:00:00 (CEST)Malmo/Sturup, Zweden (2636): windsnelheid: 13.06.2018 22:00:00 - 19.06.2018 22:00:00 (CEST)Malmo/Sturup, Zweden (2636): windrichting: 13.06.2018 22:00:00 - 19.06.2018 22:00:00 (CEST)Malmo/Sturup, Zweden (2636): luchtdruk: 13.06.2018 22:00:00 - 19.06.2018 22:00:00 (CEST)Malmo/Sturup, Zweden (2636): zicht: 13.06.2018 22:00:00 - 19.06.2018 22:00:00 (CEST)
Datum & Tijd tt [°C] td [°C] ff [km/u] ff [kn] dd ppp [hPa] vv [km]
19.06.2018 22:00:00 16,0 6,0 18 10 WNW - 10
19.06.2018 21:00:00 16,7 5,6 18 10 WNW 1018,4 10
19.06.2018 20:00:00 17,9 7,0 28 15 WNW 1018,3 10
19.06.2018 19:00:00 19,0 6,1 28 15 WNW 1018,0 10
19.06.2018 18:00:00 20,2 6,2 25 14 WNW 1017,3 30
19.06.2018 17:00:00 21,8 7,6 35 19 W 1017,0 10
19.06.2018 16:00:00 21,2 8,5 35 19 W 1016,6 10
19.06.2018 15:00:00 21,6 10,4 31 17 W 1016,5 10
19.06.2018 14:00:00 20,7 10,5 31 17 W 1015,9 10
19.06.2018 13:00:00 20,3 11,0 31 17 W 1016,0 10
19.06.2018 12:00:00 19,1 11,4 31 17 W 1015,9 10
19.06.2018 11:00:00 18,4 11,9 26 14 W 1015,7 10
19.06.2018 10:00:00 17,1 12,0 29 16 W 1015,4 10
19.06.2018 09:00:00 16,9 12,2 26 14 W 1015,4 10
19.06.2018 08:00:00 16,7 11,8 22 12 W 1015,0 10
19.06.2018 07:00:00 15,5 10,9 26 14 W 1015,1 10
19.06.2018 06:00:00 15,2 11,2 24 13 W 1014,7 10
19.06.2018 05:00:00 15,8 12,5 18 10 W 1014,5 45
19.06.2018 04:00:00 16,3 13,2 18 10 W 1014,6 35
19.06.2018 03:00:00 16,4 14,2 14 8 WZW 1014,7 19
19.06.2018 02:00:00 16,5 14,8 14 8 ZW 1015,0 13
19.06.2018 01:00:00 16,0 15,0 18 10 ZW - 10
19.06.2018 00:00:00 16,1 14,5 18 10 ZW 1015,6 10
18.06.2018 23:00:00 17,1 14,2 21 11 ZW 1015,7 10
18.06.2018 22:00:00 17,4 13,9 18 10 ZW 1015,8 10
18.06.2018 21:00:00 18,0 13,3 22 12 ZW 1015,8 10
18.06.2018 20:00:00 18,4 12,2 18 10 ZW 1015,7 10
18.06.2018 19:00:00 18,5 12,3 18 10 ZW 1016,2 10
18.06.2018 18:00:00 18,8 11,6 22 12 ZW 1016,4 10
18.06.2018 17:00:00 19,7 11,2 22 12 ZW 1016,8 10
18.06.2018 16:00:00 19,2 11,2 25 14 ZW 1017,1 40
18.06.2018 15:00:00 19,5 11,5 26 14 ZW 1017,1 10
18.06.2018 14:00:00 18,3 11,4 26 14 ZZW 1017,4 10
18.06.2018 13:00:00 19,8 9,9 24 13 ZW 1017,3 10
18.06.2018 12:00:00 18,7 10,8 21 11 ZW 1017,4 10
18.06.2018 11:00:00 17,9 10,0 18 10 WZW 1017,6 10
18.06.2018 10:00:00 17,6 10,5 18 10 W 1017,5 10
18.06.2018 09:00:00 17,4 10,5 18 10 WZW 1017,3 10
18.06.2018 08:00:00 15,5 11,1 11 6 WZW 1017,3 10
18.06.2018 07:00:00 13,9 11,2 8 4 WZW 1017,3 10
18.06.2018 06:00:00 13,0 11,1 8 4 W 1017,3 10
18.06.2018 05:00:00 13,1 10,8 8 4 WZW 1016,8 10
18.06.2018 04:00:00 12,8 10,2 9 5 ZW 1016,9 10
18.06.2018 03:00:00 9,8 7,9 9 5 ZW 1017,1 10
18.06.2018 02:00:00 12,8 8,3 9 5 W 1016,8 10
18.06.2018 01:00:00 13,6 8,4 9 5 WZW 1016,4 10
18.06.2018 00:00:00 14,6 7,6 11 6 WZW 1016,1 10
17.06.2018 23:00:00 15,6 7,1 16 9 W 1015,7 10
17.06.2018 22:00:00 16,7 8,1 13 7 WZW 1015,5 10
17.06.2018 21:00:00 17,7 8,3 18 10 W 1015,1 10
17.06.2018 20:00:00 18,2 10,6 16 9 W 1014,4 10
17.06.2018 19:00:00 19,5 10,5 16 9 W 1014,1 10
17.06.2018 18:00:00 19,1 8,7 24 13 W 1014,1 10
17.06.2018 17:00:00 19,5 11,5 28 15 WZW 1013,7 10
17.06.2018 16:00:00 20,1 9,9 29 16 WZW 1013,4 10
17.06.2018 15:00:00 21,7 11,7 28 15 ZW 1012,9 10
17.06.2018 14:00:00 19,8 13,0 26 14 WZW 1012,9 10
17.06.2018 13:00:00 19,5 13,0 21 11 WZW 1012,6 10
17.06.2018 12:00:00 19,6 15,5 22 12 ZW 1012,3 10
17.06.2018 11:00:00 18,5 14,8 11 6 ZZW 1012,3 10
17.06.2018 10:00:00 16,4 15,4 0 0 N 1012,5 10
17.06.2018 09:00:00 16,0 15,2 8 4 W 1012,8 5
17.06.2018 08:00:00 18,0 14,7 5 3 O 1013,1 10
17.06.2018 07:00:00 17,2 14,1 8 4 OZO 1012,2 10
17.06.2018 06:00:00 15,1 12,4 13 7 OZO 1012,3 10
17.06.2018 05:00:00 14,3 12,3 11 6 OZO 1012,7 10
17.06.2018 04:00:00 14,0 12,2 13 7 OZO 1013,0 10
17.06.2018 03:00:00 14,1 12,3 18 10 OZO 1013,5 10
17.06.2018 02:00:00 13,6 12,3 16 9 O 1013,9 10
17.06.2018 01:00:00 13,7 12,4 13 7 O 1014,8 10
17.06.2018 00:00:00 14,7 11,1 18 10 OZO 1015,6 10
16.06.2018 23:00:00 15,0 11,2 18 10 OZO 1014,5 10
16.06.2018 22:00:00 15,6 11,8 11 6 ZZW 1015,2 10
16.06.2018 21:00:00 17,1 10,0 16 9 OZO 1015,1 10
16.06.2018 20:00:00 17,6 9,5 22 12 OZO 1015,2 10
16.06.2018 19:00:00 18,4 6,9 21 11 ZO 1015,5 10
16.06.2018 18:00:00 18,5 7,9 21 11 OZO 1015,9 10
16.06.2018 17:00:00 19,0 8,6 18 10 OZO 1016,4 10
16.06.2018 16:00:00 19,3 8,6 16 9 ZO 1016,6 10
16.06.2018 15:00:00 19,8 6,9 16 9 ZO 1017,0 10
16.06.2018 14:00:00 19,2 8,2 16 9 ZO 1017,7 10
16.06.2018 13:00:00 18,2 9,3 16 9 ZO 1018,1 10
16.06.2018 12:00:00 18,5 12,0 13 7 ZZO 1018,1 10
16.06.2018 11:00:00 19,6 8,3 5 3 - 1018,1 10
16.06.2018 10:00:00 20,4 7,7 8 4 Z 1018,0 10
16.06.2018 09:00:00 19,9 8,6 8 4 ZZW 1018,0 10
16.06.2018 08:00:00 17,7 12,8 5 3 ZO 1018,1 10
16.06.2018 07:00:00 15,2 12,3 4 2 ZZO 1018,2 27
16.06.2018 06:00:00 10,2 9,4 4 2 OZO 1018,2 15
16.06.2018 05:00:00 8,8 8,3 4 2 O 1018,2 20
16.06.2018 04:00:00 7,9 7,1 4 2 OZO 1018,3 35
16.06.2018 03:00:00 7,9 6,8 0 0 N 1018,3 50
16.06.2018 02:00:00 7,8 6,7 0 0 N 1018,1 40
16.06.2018 01:00:00 7,5 6,1 4 2 OZO 1017,9 40
16.06.2018 00:00:00 8,5 7,0 2 1 O 1017,9 10
15.06.2018 23:00:00 10,1 6,8 4 2 ZZO 1017,9 10
15.06.2018 22:00:00 12,4 8,1 0 0 N 1017,6 10
15.06.2018 21:00:00 16,7 6,8 5 3 WNW 1017,2 10
15.06.2018 20:00:00 19,1 5,2 13 7 NW 1017,0 10
15.06.2018 19:00:00 19,5 5,2 16 9 NW 1016,9 10
15.06.2018 18:00:00 20,3 6,3 16 9 WNW 1016,9 10
15.06.2018 17:00:00 20,2 7,2 15 8 WNW 1016,7 10
15.06.2018 16:00:00 19,5 8,2 18 10 NW 1016,5 10
15.06.2018 15:00:00 19,1 8,4 15 8 WNW 1016,4 10
15.06.2018 14:00:00 18,9 8,5 13 7 WNW 1016,4 10
15.06.2018 13:00:00 19,4 10,1 13 7 W 1016,3 10
15.06.2018 12:00:00 18,1 10,2 18 10 W 1016,0 10
15.06.2018 11:00:00 18,5 10,1 13 7 W 1015,7 10
15.06.2018 10:00:00 17,0 10,4 13 7 W 1015,5 10
15.06.2018 09:00:00 16,5 11,0 13 7 W 1015,1 10
15.06.2018 08:00:00 15,5 12,1 13 7 W 1014,7 10
15.06.2018 07:00:00 15,0 12,9 11 6 W 1014,2 10
15.06.2018 06:00:00 14,3 12,9 11 6 W 1013,8 10
15.06.2018 05:00:00 13,9 12,6 11 6 W 1013,3 10
15.06.2018 04:00:00 14,8 14,0 13 7 WZW 1013,0 9
15.06.2018 03:00:00 15,1 13,8 15 8 ZW 1012,6 10
15.06.2018 02:00:00 15,5 13,3 15 8 WZW 1012,5 10
15.06.2018 01:00:00 15,8 12,3 11 6 ZW 1012,5 10
15.06.2018 00:00:00 16,1 12,3 11 6 WZW 1012,6 10
14.06.2018 23:00:00 16,8 11,7 16 9 ZW 1012,6 10
14.06.2018 22:00:00 15,9 11,5 13 7 Z 1012,0 10
14.06.2018 21:00:00 16,7 11,4 18 10 Z 1012,0 10
14.06.2018 20:00:00 18,0 9,4 24 13 ZZW 1011,8 10
14.06.2018 19:00:00 19,1 9,0 26 14 ZZW 1011,7 10
14.06.2018 18:00:00 19,4 9,9 29 16 ZZW 1011,9 10
14.06.2018 17:00:00 19,5 10,2 28 15 ZZW 1012,1 10
14.06.2018 16:00:00 19,3 10,6 28 15 ZZW 1012,3 10
14.06.2018 15:00:00 18,8 10,1 24 13 ZZW 1012,7 10
14.06.2018 14:00:00 17,4 10,0 26 14 ZW 1013,0 10
14.06.2018 13:00:00 18,3 10,1 21 11 ZW 1012,8 10
14.06.2018 12:00:00 16,5 9,2 18 10 ZW 1013,5 10
14.06.2018 11:00:00 17,2 7,8 15 8 ZW 1013,5 10
14.06.2018 10:00:00 15,7 6,9 13 7 WZW 1013,5 10
14.06.2018 09:00:00 14,9 7,0 13 7 WZW 1013,5 10
14.06.2018 08:00:00 13,8 7,1 16 9 W 1013,4 10
14.06.2018 07:00:00 13,9 7,7 9 5 W 1013,2 10
14.06.2018 06:00:00 13,4 7,6 9 5 WZW 1013,1 10
14.06.2018 05:00:00 12,7 8,0 9 5 W 1012,9 10
14.06.2018 04:00:00 12,5 8,2 11 6 W 1012,8 10
14.06.2018 03:00:00 12,4 9,0 13 7 W 1012,4 10
14.06.2018 02:00:00 11,9 8,6 9 5 WZW 1012,1 10
14.06.2018 01:00:00 12,7 8,8 9 5 WNW 1011,7 10
14.06.2018 00:00:00 13,4 8,9 13 7 WNW 1011,9 10
13.06.2018 23:00:00 14,2 9,0 15 8 WNW 1011,7 10
13.06.2018 22:00:00 15,3 8,8 13 7 WNW 1010,8 10

tt = temperatuur
td = dauwpunt
ff = windsnelheid
dd = windrichting
ppp = luchtdruk
vv = zicht

Weerstations in de omgeving